Find Starlink 4554

NORAD ID: 53626 Int'l Des: 2022-104 Owner: SPXS Country: US Constellation: starlink operational
LEOCIRCULAR

リアルタイム位置

3D地球を読み込み中...

Starlink 4554について

説明を読み込み中...

次回通過

Passes for default location (London). Set your location on the main map for personalized predictions.

高度履歴

Loading altitude history...

軌道要素

1 53626U 22104AQ 26138.79526147 -.00001035 00000-0 -46935-4 0 9994
2 53626 53.2156 279.0450 0001435 77.0962 283.0190 15.08834657206342
Epoch: May 18, 2026 • Age: 18 hours

現在のステータス

高度 540.4 km
速度 7.60 km/s
衛星直下点 28.08°N, 129.06°W
打ち上げ日 Aug 28, 2022
運用期間 3.7 years
タイプ internet

技術仕様

分類 Payload
質量 300.00 kg
乾燥質量 290.00 kg
総質量 300.00 kg
長さ 0.20 m
直径 2.80 m
スパン 9.00 m
形状 Box + pan
製造者 SPXS
バスタイプ Starlink
フェーズステータス In Orbit
所有者/国 SPXS/US

Most Searched